Location: Arleux
(50.3632°N, 2.8721°E)
Time: 00:45:57
(UTC+00:00)

Cosmos 2266 Rocket - Pass Details

Date: 15 December 2019
Orbit: 933 x 1009 km, 82.9° (Epoch: 20 January)

Event Time Altitude Azimuth Distance (km) Brightness Sun altitude
Rises 06:04:17 0° 347° (NNW) 3,687 6.7 -14.5°
Reaches altitude 10° 06:06:52 10° 343° (NNW) 2,724 6.0 -14.1°
Maximum altitude 06:12:53 54° 268° (W) 1,149 4.1 -13.2°
Drops below altitude 10° 06:18:47 10° 193° (SSW) 2,659 6.4 -12.4°
Sets 06:21:17 0° 189° (S) 3,592 7.1 -12.0°
